When you browse on this site, cookies collect data to enhance your experience and personalize the content and advertising you see.
Visit our Privacy Policy to learn more. By continuing to use the site, you agree to this use of cookies and data.
  • In Switzerland
  • List of Countries
  • For 7 days
  • Water Temperature
  • Satellite Maps
  • Weather Map
  • Weather Widgets
  • user-avatar
    Login

    Hourly Weather Mesznary

    Today, 13 December, Thursday

    Time Temperature Precipitation Wind Pressure Humidity
    00:00 -2°C° 0 mm 2 mps 753 mmHg 93%
    01:00 +1°C° 0 mm 1 mps 753 mmHg 91%
    02:00 +1°C° 0.1 mm 1 mps 753 mmHg 91%
    03:00 +1°C° 0.1 mm 1 mps 753 mmHg 91%
    04:00 -1°C° 0.1 mm 2 mps 753 mmHg 91%
    05:00 -1°C° 0.1 mm 2 mps 753 mmHg 91%
    06:00 -1°C° 0.1 mm 2 mps 753 mmHg 92%
    07:00 -1°C° 0.1 mm 2 mps 753 mmHg 92%
    08:00 -1°C° 0 mm 2 mps 753 mmHg 90%
    09:00 +1°C° 0 mm 2 mps 753 mmHg 89%
    10:00 +1°C° 0 mm 2 mps 753 mmHg 87%
    11:00 +1°C° 0 mm 2 mps 753 mmHg 86%
    12:00 +1°C° 0 mm 2 mps 753 mmHg 84%
    13:00 +1°C° 0 mm 2 mps 753 mmHg 82%
    14:00 +1°C° 0 mm 2 mps 753 mmHg 83%
    15:00 +1°C° 0 mm 2 mps 753 mmHg 84%
    16:00 -1°C° 0 mm 2 mps 753 mmHg 86%
    17:00 -1°C° 0 mm 2 mps 753 mmHg 85%
    18:00 -1°C° 0 mm 2 mps 753 mmHg 85%
    19:00 -1°C° 0 mm 2 mps 753 mmHg 85%
    20:00 -1°C° 0 mm 2 mps 753 mmHg 85%
    21:00 -1°C° 0 mm 2 mps 753 mmHg 85%
    22:00 -1°C° 0 mm 2 mps 753 mmHg 85%
    23:00 -1°C° 0 mm 2 mps 753 mmHg 85%

    Tomorrow, 14 December, Friday

    Time Temperature Precipitation Wind Pressure Humidity
    00:00 -1°C° 0 mm 2 mps 753 mmHg 85%
    01:00 -2°C° 0 mm 2 mps 754 mmHg 85%
    02:00 -2°C° 0 mm 2 mps 754 mmHg 85%
    03:00 -2°C° 0 mm 2 mps 754 mmHg 84%
    04:00 -2°C° 0 mm 2 mps 754 mmHg 84%
    05:00 -2°C° 0 mm 2 mps 754 mmHg 84%
    06:00 -2°C° 0 mm 2 mps 754 mmHg 84%
    07:00 -2°C° 0 mm 2 mps 754 mmHg 84%
    08:00 -2°C° 0 mm 2 mps 754 mmHg 80%
    09:00 -2°C° 0 mm 3 mps 755 mmHg 77%
    10:00 -1°C° 0 mm 3 mps 755 mmHg 74%
    11:00 -1°C° 0 mm 3 mps 755 mmHg 71%
    12:00 -1°C° 0 mm 2 mps 755 mmHg 68%
    13:00 +1°C° 0 mm 2 mps 755 mmHg 65%
    14:00 -1°C° 0 mm 2 mps 755 mmHg 69%
    15:00 -1°C° 0 mm 2 mps 755 mmHg 72%
    16:00 -2°C° 0 mm 2 mps 755 mmHg 75%
    17:00 -2°C° 0 mm 2 mps 755 mmHg 77%
    18:00 -2°C° 0 mm 2 mps 756 mmHg 79%
    19:00 -2°C° 0 mm 2 mps 756 mmHg 81%
    20:00 -2°C° 0 mm 2 mps 756 mmHg 82%
    21:00 -2°C° 0 mm 2 mps 756 mmHg 84%
    22:00 -2°C° 0 mm 2 mps 756 mmHg 85%
    23:00 -2°C° 0 mm 2 mps 756 mmHg 86%

    Day after tomorrow, 15 December, Saturday

    Time Temperature Precipitation Wind Pressure Humidity
    00:00 -1°C° 0 mm 2 mps 756 mmHg 86%
    01:00 -1°C° 0 mm 3 mps 756 mmHg 87%
    02:00 -1°C° 0 mm 3 mps 756 mmHg 87%
    03:00 -1°C° 0 mm 3 mps 756 mmHg 86%
    04:00 -1°C° 0 mm 3 mps 756 mmHg 86%
    05:00 -1°C° 0 mm 3 mps 756 mmHg 84%
    06:00 -1°C° 0 mm 3 mps 756 mmHg 82%
    07:00 -1°C° 0 mm 3 mps 756 mmHg 80%
    08:00 -1°C° 0 mm 3 mps 756 mmHg 77%
    09:00 -1°C° 0 mm 3 mps 756 mmHg 75%
    10:00 -2°C° 0 mm 4 mps 756 mmHg 72%
    11:00 -1°C° 0 mm 4 mps 756 mmHg 69%
    12:00 -1°C° 0 mm 4 mps 756 mmHg 67%
    13:00 -1°C° 0 mm 4 mps 756 mmHg 64%
    14:00 0°C° 0 mm 3 mps 756 mmHg 67%
    15:00 -1°C° 0 mm 3 mps 756 mmHg 70%
    16:00 -1°C° 0 mm 3 mps 756 mmHg 72%
    17:00 -1°C° 0 mm 3 mps 756 mmHg 74%
    18:00 -2°C° 0 mm 3 mps 756 mmHg 75%
    19:00 -2°C° 0 mm 3 mps 756 mmHg 76%
    20:00 -2°C° 0 mm 3 mps 755 mmHg 78%
    21:00 -2°C° 0 mm 3 mps 755 mmHg 79%
    22:00 -2°C° 0 mm 3 mps 755 mmHg 80%
    23:00 -2°C° 0 mm 3 mps 755 mmHg 79%

    16 December, Sunday

    Time Temperature Precipitation Wind Pressure Humidity
    00:00 -2°C° 0 mm 3 mps 754 mmHg 79%
    01:00 -2°C° 0 mm 3 mps 754 mmHg 78%
    02:00 -2°C° 0 mm 3 mps 754 mmHg 77%
    03:00 -2°C° 0 mm 3 mps 753 mmHg 76%
    04:00 -2°C° 0 mm 3 mps 753 mmHg 75%
    05:00 -2°C° 0 mm 3 mps 753 mmHg 76%
    06:00 -2°C° 0 mm 3 mps 752 mmHg 77%
    07:00 -2°C° 0 mm 3 mps 752 mmHg 77%
    08:00 -2°C° 0 mm 3 mps 752 mmHg 77%
    09:00 -3°C° 0 mm 4 mps 752 mmHg 76%
    10:00 -3°C° 0 mm 4 mps 752 mmHg 76%
    11:00 -3°C° 0 mm 4 mps 751 mmHg 74%
    12:00 -1°C° 0 mm 3 mps 751 mmHg 73%
    13:00 -1°C° 0 mm 3 mps 751 mmHg 72%
    14:00 -1°C° 0 mm 2 mps 750 mmHg 73%
    15:00 -2°C° 0 mm 2 mps 750 mmHg 75%
    16:00 -2°C° 0 mm 2 mps 750 mmHg 77%
    17:00 -2°C° 0 mm 2 mps 750 mmHg 78%
    18:00 -2°C° 0 mm 2 mps 750 mmHg 80%
    19:00 -2°C° 0 mm 2 mps 750 mmHg 81%
    20:00 -2°C° 0 mm 2 mps 750 mmHg 82%
    21:00 -3°C° 0 mm 2 mps 750 mmHg 83%
    22:00 -3°C° 0 mm 2 mps 750 mmHg 84%
    23:00 -3°C° 0 mm 2 mps 750 mmHg 84%

    17 December, Monday

    Time Temperature Precipitation Wind Pressure Humidity
    00:00 -3°C° 0 mm 2 mps 750 mmHg 84%
    01:00 -3°C° 0 mm 2 mps 750 mmHg 83%
    02:00 -3°C° 0 mm 2 mps 750 mmHg 82%
    03:00 -3°C° 0 mm 2 mps 750 mmHg 81%
    04:00 -3°C° 0 mm 2 mps 750 mmHg 80%
    05:00 -3°C° 0 mm 2 mps 750 mmHg 79%
    06:00 -3°C° 0 mm 2 mps 751 mmHg 77%
    07:00 -3°C° 0 mm 2 mps 751 mmHg 75%
    08:00 -2°C° 0 mm 2 mps 751 mmHg 73%
    09:00 -2°C° 0 mm 2 mps 751 mmHg 70%
    10:00 -2°C° 0 mm 2 mps 752 mmHg 68%
    11:00 -1°C° 0 mm 2 mps 752 mmHg 67%
    12:00 -1°C° 0 mm 2 mps 752 mmHg 65%
    13:00 +1°C° 0 mm 1 mps 752 mmHg 64%
    14:00 +1°C° 0 mm 1 mps 752 mmHg 67%
    15:00 0°C° 0 mm 1 mps 752 mmHg 69%
    16:00 0°C° 0 mm 1 mps 752 mmHg 72%
    17:00 0°C° 0 mm 1 mps 753 mmHg 72%
    18:00 0°C° 0 mm 1 mps 753 mmHg 72%
    19:00 0°C° 0 mm 1 mps 753 mmHg 73%
    20:00 0°C° 0 mm 1 mps 754 mmHg 74%
    21:00 0°C° 0 mm 1 mps 754 mmHg 75%
    22:00 0°C° 0 mm 1 mps 754 mmHg 76%
    23:00 0°C° 0 mm 1 mps 754 mmHg 78%

    18 December, Tuesday

    Time Temperature Precipitation Wind Pressure Humidity
    00:00 0°C° 0 mm 1 mps 754 mmHg 80%
    01:00 0°C° 0 mm 1 mps 754 mmHg 81%
    02:00 0°C° 0 mm 1 mps 754 mmHg 82%
    03:00 0°C° 0 mm 1 mps 754 mmHg 83%
    04:00 0°C° 0 mm 1 mps 754 mmHg 85%
    05:00 0°C° 0 mm 1 mps 754 mmHg 85%
    06:00 -1°C° 0 mm 1 mps 754 mmHg 86%
    07:00 -1°C° 0 mm 1 mps 754 mmHg 86%
    08:00 0°C° 0 mm 1 mps 754 mmHg 84%
    09:00 0°C° 0 mm 1 mps 755 mmHg 82%
    10:00 +1°C° 0 mm 1 mps 755 mmHg 81%
    11:00 +1°C° 0 mm 1 mps 755 mmHg 79%
    12:00 +2°C° 0 mm 1 mps 754 mmHg 77%
    13:00 +2°C° 0 mm 1 mps 754 mmHg 75%
    14:00 +1°C° 0 mm 1 mps 754 mmHg 77%
    15:00 +1°C° 0 mm 1 mps 754 mmHg 79%
    16:00 0°C° 0 mm 1 mps 754 mmHg 82%
    17:00 0°C° 0 mm 1 mps 754 mmHg 82%
    18:00 0°C° 0 mm 1 mps 754 mmHg 82%
    19:00 0°C° 0 mm 1 mps 754 mmHg 83%
    20:00 0°C° 0 mm 1 mps 754 mmHg 83%
    21:00 -2°C° 0 mm 2 mps 754 mmHg 84%
    22:00 -2°C° 0 mm 2 mps 754 mmHg 84%
    23:00 -2°C° 0 mm 2 mps 754 mmHg 84%
    Show more